Location: Unspecified
(0.0000°N, 0.0000°E)
Time: 18:34:38
(UTC+00:00)

deb r/b Ablestar - Pass Details

Date: 25 April 2026
Orbit: 907 x 1192 km, 66.9° (Epoch: 12 May)

Event Time Altitude Azimuth Distance (km) Brightness Sun altitude
Rises 19:14:34 0° 3° (N) 4,046 ? -18.6°
Reaches altitude 10° 19:17:51 10° 15° (NNE) 3,060 ? -19.4°
Enters shadow 19:23:35 26° 68° (ENE) 2,050 ? -20.8°
